THOR AGENA B R/B, 1807

Orbit data source: Space-Track

THOR AGENA B R/B, 1807 is space debris in LEO originally from a launch on Mon, 29 Nov 1965 UTC launched from the Air Force Western Test Range (AFWTR). Debris objects in space refer to the collection of defunct objects orbiting the Earth. Examples of debris include non-operational satellites, rocket bodies, and fragments generated from explosions, collisions, or faulty payload assembly.

Loading next visibility...
Identifier
1807, 1965-098C
Orbit
LEO
Country
Flag of USUS
Related business
Manufacturer
LMSC
Mission
Spacecraft
Bus & Motor
AGENA B, Unknown motor
Mass
600 kg wet, 600 kg dry
Launch date (UTC)
1965-11-29 (61 years ago)
Launch vehicle
Unknown
Launch site
Air Force Western Test Range (AFWTR)
Object type
Payload
Rocket body
Debris
Shape & HBR
Unknown
Radar Cross Section
Large (>1 m²)

Expand to show TLE details & history
Last TLE update: 18 hours ago

TLE from 18 hours ago
0 THOR AGENA B R/B
1  1807U 65098C   26171.38815100  .00000674  00000-0  21683-3 0  9997
2  1807  79.8347  38.7973 1331566  24.2334 341.5863 12.28131618673690
Epoch: 2026-06-20T09:18Z
TLE epoch observation values (Epoch: 2026-06-20T09:18:56.246Z)
Latitude
-0.00004°
Longitude
-9.54056°
Altitude
574.403 km
Speed
8.03 km/s
True Right ascension
02h 35m 11s
True Declination
0° 00' 00"
Sunlit
Object was in daylight at epoch
Visualization orbit readout
Latitude
Unknown
Longitude
Unknown
Altitude
Unknown
Speed
Unknown
Apparent Right ascension
Unknown
Apparent Declination
Unknown
Sunlit
N/A
Visualization observer readout
Local Sidereal Time
14:04:01
Azimuth
Unknown
Elevation
Unknown
Doppler factor
Unknown
Orbital elements
Apogee altitude
2,611.056 km
Perigee altitude
498.426 km
Semi-major axis
7,932.878 km
Eccentricity
0.13316
Inclination
79.8347°
RAAN
38.7973°
Arg. of periapsis
24.2334°
True anomaly
335.88043°
Mean anomaly
341.5863°
Eccentric anomaly
338.83123°
Mean motion
3.07183 °/min
Orbital period
117.19 mins
BSTAR
0.00021683
Loading maneuver chart data...
Computing Atmospheric mass density...
Loading historical data...
Loading historical data...
Loading historical data...
Loading historical data...
Loading historical data...
Loading historical data...
Loading historical data...

Documentation

Showing up to 5 results
|